| time (UTC) | temp F | wind direction | speed knots | gust knots | rain 1hr in | rain 24hr in | rain mn in | humidity % | barometer mb |
| 20260507035102 | 55 | 229 | 2.6 | 8.7 | 0.00 | 0.13 | 0.13 | 94 | 1006.0 |
| 20260507034103 | 55 | 225 | 4.3 | 8.7 | 0.00 | 0.13 | 0.13 | 94 | 1006.2 |
| 20260507033103 | 55 | 226 | 5.2 | 10.4 | 0.00 | 0.13 | 0.13 | 94 | 1006.4 |
| 20260507032145 | 55 | 209 | 4.3 | 10.4 | 0.00 | 0.13 | 0.13 | 94 | 1006.6 |
| 20260507031103 | 55 | 221 | 5.2 | 10.4 | 0.00 | 0.13 | 0.13 | 94 | 1006.2 |
| 20260507025103 | 55 | 240 | 4.3 | 13.9 | 0.00 | 0.13 | 0.13 | 94 | 1006.3 |
| 20260507024102 | 55 | 238 | 5.2 | 11.3 | 0.00 | 0.13 | 0.13 | 94 | 1006.2 |
| 20260507023103 | 55 | 217 | 4.3 | 11.3 | 0.00 | 0.13 | 0.13 | 94 | 1006.3 |
| 20260507022102 | 55 | 209 | 5.2 | 8.7 | 0.00 | 0.13 | 0.13 | 94 | 1006.3 |
| 20260507021124 | 55 | 209 | 6.1 | 10.4 | 0.00 | 0.13 | 0.13 | 94 | 1006.3 |
| 20260507015102 | 55 | 214 | 3.5 | 11.3 | 0.00 | 0.13 | 0.13 | 94 | 1006.5 |
| 20260507014103 | 55 | 199 | 4.3 | 11.3 | 0.00 | 0.13 | 0.13 | 94 | 1006.7 |
| 20260507013103 | 55 | 206 | 6.1 | 10.4 | 0.00 | 0.13 | 0.13 | 94 | 1006.6 |
| 20260507012103 | 55 | 217 | 5.2 | 14.8 | 0.00 | 0.13 | 0.13 | 94 | 1006.8 |
| 20260507011103 | 55 | 207 | 7.8 | 14.8 | 0.00 | 0.13 | 0.13 | 94 | 1006.8 |
| 20260507005123 | 55 | 229 | 6.1 | 12.2 | 0.00 | 0.13 | 0.13 | 94 | 1006.9 |
| 20260507004125 | 55 | 223 | 5.2 | 17.4 | 0.00 | 0.13 | 0.13 | 94 | 1006.9 |
| 20260507003103 | 55 | 220 | 4.3 | 13.0 | 0.00 | 0.13 | 0.13 | 94 | 1006.8 |
| 20260507002102 | 55 | 229 | 7.8 | 13.0 | 0.00 | 0.13 | 0.13 | 94 | 1006.8 |
| 20260507001103 | 55 | 210 | 8.7 | 17.4 | 0.00 | 0.13 | 0.13 | 94 | 1006.8 |
| 20260507000123 | 55 | 211 | 7.8 | 18.2 | 0.00 | 0.13 | 0.13 | 94 | 1006.9 |
| 20260506235102 | 55 | 194 | 7.8 | 16.5 | 0.02 | 0.13 | 0.13 | 94 | 1006.7 |
| 20260506234103 | 55 | 210 | 6.1 | 20.9 | 0.02 | 0.13 | 0.13 | 93 | 1006.8 |
| 20260506233102 | 55 | 212 | 7.8 | 13.0 | 0.02 | 0.13 | 0.13 | 93 | 1006.8 |
| 20260506232103 | 55 | 207 | 8.7 | 14.8 | 0.00 | 0.11 | 0.11 | 93 | 1006.9 |
| 20260506231102 | 55 | 217 | 9.6 | 15.6 | 0.00 | 0.11 | 0.11 | 93 | 1006.8 |
| 20260506230124 | 55 | 217 | 9.6 | 21.7 | 0.00 | 0.11 | 0.11 | 93 | 1006.9 |
| 20260506225103 | 55 | 202 | 11.3 | 18.2 | 0.06 | 0.10 | 0.10 | 93 | 1006.7 |
| 20260506224102 | 55 | 208 | 11.3 | 20.9 | 0.05 | 0.09 | 0.09 | 92 | 1006.7 |
| 20260506222102 | 55 | 209 | 11.3 | 20.0 | 0.02 | 0.06 | 0.06 | 92 | 1006.8 |
| 20260506221103 | 56 | 213 | 8.7 | 20.9 | 0.00 | 0.04 | 0.04 | 92 | 1007.3 |
| 20260506215103 | 56 | 216 | 10.4 | 18.2 | 0.02 | 0.04 | 0.04 | 91 | 1007.3 |
| 20260506214102 | 56 | 203 | 8.7 | 18.2 | 0.02 | 0.04 | 0.04 | 91 | 1007.2 |
| 20260506213124 | 56 | 211 | 11.3 | 18.2 | 0.01 | 0.03 | 0.03 | 91 | 1007.2 |
| 20260506212103 | 56 | 214 | 7.0 | 20.9 | 0.01 | 0.03 | 0.03 | 91 | 1007.4 |
| 20260506211102 | 56 | 201 | 9.6 | 18.2 | 0.01 | 0.03 | 0.03 | 91 | 1007.5 |
| 20260506210124 | 57 | 206 | 9.6 | 22.6 | 0.00 | 0.02 | 0.02 | 90 | 1007.5 |
| 20260506205103 | 57 | 204 | 7.8 | 18.2 | 0.00 | 0.02 | 0.02 | 90 | 1007.6 |
| 20260506204102 | 57 | 207 | 7.8 | 16.5 | 0.00 | 0.02 | 0.02 | 89 | 1007.6 |
| 20260506203124 | 57 | 219 | 10.4 | 19.1 | 0.00 | 0.02 | 0.02 | 89 | 1007.8 |
| 20260506202103 | 57 | 234 | 9.6 | 18.2 | 0.00 | 0.02 | 0.02 | 89 | 1007.8 |
| 20260506201102 | 57 | 212 | 13.0 | 20.9 | 0.00 | 0.02 | 0.02 | 90 | 1007.9 |
| 20260506200124 | 57 | 209 | 7.8 | 19.1 | 0.00 | 0.02 | 0.02 | 89 | 1008.0 |
| 20260506195102 | 58 | 205 | 9.6 | 14.8 | 0.02 | 0.02 | 0.02 | 88 | 1008.2 |
| 20260506194124 | 59 | 206 | 8.7 | 17.4 | 0.00 | 0.00 | 0.00 | 86 | 1008.2 |
| 20260506193103 | 60 | 202 | 11.3 | 21.7 | 0.00 | 0.00 | 0.00 | 84 | 1008.2 |
| 20260506192102 | 60 | 209 | 8.7 | 18.2 | 0.00 | 0.00 | 0.00 | 83 | 1008.2 |
| 20260506191103 | 61 | 202 | 7.0 | 19.1 | 0.00 | 0.00 | 0.00 | 83 | 1008.3 |
| 20260506185103 | 61 | 208 | 9.6 | 17.4 | 0.00 | 0.00 | 0.00 | 83 | 1008.3 |
| 20260506184102 | 61 | 197 | 12.2 | 26.1 | 0.00 | 0.00 | 0.00 | 82 | 1008.4 |
| 20260506183103 | 61 | 202 | 12.2 | 21.7 | 0.00 | 0.00 | 0.00 | 82 | 1008.7 |
| 20260506182103 | 61 | 196 | 11.3 | 20.9 | 0.00 | 0.00 | 0.00 | 81 | 1008.7 |
| 20260506181102 | 61 | 209 | 13.0 | 20.9 | 0.00 | 0.00 | 0.00 | 81 | 1008.7 |
| 20260506175103 | 62 | 200 | 13.0 | 23.5 | 0.00 | 0.00 | 0.00 | 80 | 1009.1 |
| 20260506174102 | 63 | 200 | 12.2 | 26.1 | 0.00 | 0.00 | 0.00 | 79 | 1009.2 |
| 20260506173103 | 63 | 208 | 12.2 | 31.3 | 0.00 | 0.00 | 0.00 | 79 | 1009.5 |
| 20260506172124 | 64 | 194 | 14.8 | 25.2 | 0.00 | 0.00 | 0.00 | 78 | 1009.4 |
| 20260506171102 | 64 | 213 | 14.8 | 26.1 | 0.00 | 0.00 | 0.00 | 78 | 1009.2 |
| 20260506170103 | 64 | 211 | 10.4 | 20.9 | 0.00 | 0.00 | 0.00 | 80 | 1009.5 |
| 20260506165102 | 63 | 215 | 15.6 | 23.5 | 0.00 | 0.00 | 0.00 | 79 | 1009.5 |
| 20260506164103 | 63 | 203 | 11.3 | 27.8 | 0.00 | 0.00 | 0.00 | 79 | 1009.8 |
| 20260506163103 | 63 | 210 | 12.2 | 27.8 | 0.00 | 0.00 | 0.00 | 79 | 1009.9 |
| 20260506162102 | 64 | 194 | 13.9 | 21.7 | 0.00 | 0.00 | 0.00 | 78 | 1009.9 |
| 20260506161103 | 64 | 203 | 15.6 | 26.9 | 0.00 | 0.00 | 0.00 | 78 | 1010.2 |
| 20260506155102 | 64 | 205 | 11.3 | 25.2 | 0.00 | 0.00 | 0.00 | 78 | 1010.3 |
| 20260506154102 | 65 | 203 | 13.0 | 21.7 | 0.00 | 0.00 | 0.00 | 77 | 1010.5 |
| 20260506153124 | 64 | 201 | 10.4 | 25.2 | 0.00 | 0.00 | 0.00 | 78 | 1010.5 |
| 20260506152103 | 64 | 201 | 11.3 | 28.7 | 0.00 | 0.00 | 0.00 | 79 | 1010.5 |
| 20260506151102 | 63 | 203 | 13.9 | 22.6 | 0.00 | 0.00 | 0.00 | 80 | 1010.6 |
| 20260506145102 | 62 | 202 | 12.2 | 21.7 | 0.00 | 0.00 | 0.00 | 80 | 1010.6 |
| 20260506144103 | 63 | 214 | 11.3 | 20.9 | 0.00 | 0.00 | 0.00 | 80 | 1010.5 |
| 20260506143102 | 63 | 213 | 9.6 | 21.7 | 0.00 | 0.00 | 0.00 | 80 | 1010.5 |
| 20260506142102 | 63 | 226 | 12.2 | 24.3 | 0.00 | 0.00 | 0.00 | 79 | 1010.6 |
| 20260506141103 | 63 | 208 | 10.4 | 20.9 | 0.00 | 0.00 | 0.00 | 81 | 1010.2 |
| 20260506135124 | 63 | 205 | 10.4 | 19.1 | 0.00 | 0.00 | 0.00 | 79 | 1010.5 |
| 20260506134102 | 63 | 198 | 12.2 | 17.4 | 0.00 | 0.00 | 0.00 | 79 | 1010.8 |
| 20260506133103 | 63 | 220 | 9.6 | 19.1 | 0.00 | 0.00 | 0.00 | 81 | 1011.0 |
| 20260506132102 | 62 | 209 | 9.6 | 16.5 | 0.00 | 0.00 | 0.00 | 82 | 1010.9 |
| 20260506131104 | 61 | 219 | 10.4 | 23.5 | 0.00 | 0.00 | 0.00 | 83 | 1010.9 |
| 20260506130124 | 61 | 212 | 9.6 | 20.9 | 0.00 | 0.00 | 0.00 | 84 | 1010.9 |
| 20260506125102 | 60 | 203 | 8.7 | 20.0 | 0.00 | 0.00 | 0.00 | 84 | 1010.9 |
| 20260506124102 | 60 | 203 | 9.6 | 26.9 | 0.00 | 0.00 | 0.00 | 85 | 1010.7 |
| 20260506123103 | 60 | 211 | 12.2 | 19.1 | 0.00 | 0.00 | 0.00 | 85 | 1010.8 |
| 20260506122102 | 59 | 199 | 12.2 | 20.0 | 0.00 | 0.00 | 0.00 | 86 | 1010.8 |
| 20260506121103 | 58 | 195 | 9.6 | 19.1 | 0.00 | 0.00 | 0.00 | 87 | 1011.0 |
| 20260506120103 | 58 | 212 | 9.6 | 18.2 | 0.00 | 0.00 | 0.00 | 88 | 1011.1 |
| 20260506115102 | 58 | 193 | 7.8 | 20.9 | 0.00 | 0.00 | 0.00 | 88 | 1011.2 |
| 20260506114103 | 57 | 204 | 7.8 | 14.8 | 0.00 | 0.00 | 0.00 | 89 | 1011.1 |
| 20260506113103 | 57 | 203 | 10.4 | 18.2 | 0.00 | 0.00 | 0.00 | 89 | 1011.3 |
| 20260506112102 | 57 | 198 | 9.6 | 14.8 | 0.00 | 0.00 | 0.00 | 90 | 1011.4 |
| 20260506111103 | 56 | 205 | 8.7 | 19.1 | 0.00 | 0.00 | 0.00 | 90 | 1011.4 |
| 20260506105103 | 56 | 195 | 11.3 | 17.4 | 0.00 | 0.00 | 0.00 | 90 | 1011.1 |
| 20260506104102 | 56 | 189 | 9.6 | 14.8 | 0.00 | 0.00 | 0.00 | 90 | 1011.1 |
| 20260506103103 | 56 | 206 | 7.8 | 14.8 | 0.00 | 0.00 | 0.00 | 91 | 1011.2 |
| 20260506102102 | 56 | 209 | 10.4 | 16.5 | 0.00 | 0.00 | 0.00 | 91 | 1011.1 |
| 20260506101103 | 56 | 212 | 7.8 | 18.2 | 0.00 | 0.00 | 0.00 | 91 | 1010.9 |
| 20260506095125 | 56 | 212 | 9.6 | 16.5 | 0.00 | 0.00 | 0.00 | 91 | 1010.8 |
| 20260506094103 | 55 | 206 | 6.1 | 13.9 | 0.00 | 0.00 | 0.00 | 91 | 1010.8 |
| 20260506093102 | 55 | 214 | 9.6 | 17.4 | 0.00 | 0.00 | 0.00 | 91 | 1010.9 |
| 20260506092104 | 55 | 193 | 8.7 | 16.5 | 0.00 | 0.00 | 0.00 | 91 | 1010.9 |
| 20260506091102 | 55 | 193 | 7.8 | 12.2 | 0.00 | 0.00 | 0.00 | 91 | 1011.0 |
| 20260506085102 | 55 | 197 | 7.0 | 15.6 | 0.00 | 0.00 | 0.00 | 91 | 1011.2 |
| 20260506084124 | 55 | 193 | 7.0 | 11.3 | 0.00 | 0.00 | 0.00 | 91 | 1011.2 |
| 20260506083102 | 55 | 210 | 6.1 | 13.9 | 0.00 | 0.00 | 0.00 | 91 | 1011.3 |
| 20260506082103 | 55 | 209 | 7.0 | 12.2 | 0.00 | 0.00 | 0.00 | 90 | 1011.4 |
| 20260506081102 | 56 | 204 | 7.0 | 12.2 | 0.00 | 0.00 | 0.00 | 90 | 1011.4 |
| 20260506080123 | 56 | 208 | 7.8 | 17.4 | 0.00 | 0.00 | 0.00 | 90 | 1011.3 |
| 20260506073103 | 56 | 203 | 6.1 | 13.0 | 0.00 | 0.00 | 0.00 | 90 | 1011.3 |
| 20260506072102 | 55 | 195 | 6.1 | 14.8 | 0.00 | 0.00 | 0.00 | 90 | 1011.3 |
| 20260506071103 | 56 | 198 | 8.7 | 15.6 | 0.00 | 0.00 | 0.00 | 90 | 1011.2 |
| 20260506070103 | 56 | 195 | 7.0 | 15.6 | 0.00 | 0.00 | 0.00 | 89 | 1011.2 |
| 20260506062103 | 56 | 218 | 8.7 | 16.5 | 0.00 | 0.00 | 0.00 | 88 | 1011.1 |
| 20260506061123 | 56 | 211 | 7.8 | 15.6 | 0.00 | 0.00 | 0.00 | 88 | 1011.1 |
| 20260506051124 | 57 | 212 | 7.0 | 15.6 | 0.00 | 0.00 | 0.00 | 87 | 1011.4 |
| 20260506045103 | 56 | 233 | 6.1 | 15.6 | 0.00 | 0.00 | 0.00 | 87 | 1011.8 |
| 20260506044104 | 56 | 220 | 7.0 | 14.8 | 0.00 | 0.00 | 0.00 | 87 | 1011.8 |
| 20260506043103 | 56 | 208 | 6.1 | 16.5 | 0.00 | 0.00 | 0.00 | 87 | 1011.8 |
| 20260506042102 | 56 | 212 | 6.1 | 15.6 | 0.00 | 0.00 | 0.00 | 87 | 1011.8 |
| 20260506041103 | 56 | 205 | 7.0 | 13.9 | 0.00 | 0.00 | 0.00 | 86 | 1011.6 |